Location: Lake Zurich
(42.1970°N, 88.0930°W)
Time: 09:02:20
(UTC-06:00)

Amateur Radio Satellites - All Passes

Search period start: 23 November 2017 08:32
Search period end: 24 November 2017 08:32
Location: Lake Zurich, 42.1970°N, 88.0930°W

Satellite Date Start Highest point End Downlink Frequencies (MHz)
Time Altitude Azimuth
PCSat 23 Nov 08:41:36 08:47:03 85° 61° (ENE) 08:52:28 145.827
EO-88 23 Nov 08:55:44 08:57:39 14° 92° (E) 08:59:33 145.990 - 145.960
XW-2A 23 Nov 08:57:36 08:58:43 11° 295° (WNW) 08:59:50 145.665 - 145.685
FALCONSAT 3 23 Nov 08:59:10 09:01:57 20° 165° (SSE) 09:04:45 435.103
AO-73 23 Nov 09:00:58 09:04:35 30° 290° (WNW) 09:08:14 145.935
Max Valier Satellite 23 Nov 09:01:58 09:04:58 23° 95° (E) 09:07:59 145.860
Oscar 11 23 Nov 09:14:36 09:18:29 33° 290° (WNW) 09:22:22 .
UNISAT 6 23 Nov 09:15:04 09:19:31 52° 260° (W) 09:23:54 437.425
TIGRISAT 23 Nov 09:18:46 09:23:12 52° 260° (W) 09:27:35 435.000
PRISM 23 Nov 09:30:46 09:34:53 83° 76° (ENE) 09:39:04 437.425
BEESAT 3 23 Nov 09:48:43 09:52:06 26° 47° (NE) 09:55:26 437.485
DELFI C3 23 Nov 09:59:35 10:03:25 44° 287° (WNW) 10:07:12 145.870
DUCHIFAT 1 23 Nov 10:00:47 10:03:13 15° 64° (ENE) 10:05:39 145.980
AO-85 23 Nov 10:07:36 10:08:20 10° 33° (NNE) 10:09:04 145.980
EO-79 23 Nov 10:10:01 10:13:26 24° 68° (ENE) 10:16:52 145.935-145.965
NANOSAT C BR1 23 Nov 10:11:46 10:15:03 22° 67° (ENE) 10:18:21 145.865
AIST 2D 23 Nov 10:17:32 10:20:59 85° 77° (ENE) 10:24:29 435.315
POLYITAN 1 23 Nov 10:25:31 10:29:22 35° 70° (ENE) 10:33:13 437.675
PCSat 23 Nov 10:27:14 10:29:40 13° 257° (WSW) 10:32:05 145.827
EO-88 23 Nov 10:28:02 10:31:27 38° 288° (WNW) 10:34:51 145.990 - 145.960
Max Valier Satellite 23 Nov 10:35:47 10:38:41 22° 291° (WNW) 10:41:35 145.860
FALCONSAT 3 23 Nov 10:37:19 10:40:31 28° 181° (S) 10:43:45 435.103
LO-87 23 Nov 10:44:36 10:47:53 35° 98° (E) 10:51:08 145.935 - 145.965
BUGSAT 1 23 Nov 10:44:54 10:46:14 11° 62° (ENE) 10:47:35 437.445
ESTCUBE 1 23 Nov 10:48:20 10:52:22 31° 96° (E) 10:56:23 437.505/2401.250
QB50P2 23 Nov 10:48:36 10:52:49 72° 75° (ENE) 10:57:04 145.880/145.840
BEESAT 2 23 Nov 11:05:41 11:09:36 46° 52° (NE) 11:13:27 435.950
Oscar 19 23 Nov 11:07:05 11:09:50 15° 59° (ENE) 11:12:34 437.125/150
BEESAT 3 23 Nov 11:26:10 11:29:36 29° 245° (WSW) 11:32:59 437.485
DUCHIFAT 1 23 Nov 11:34:22 11:38:28 50° 260° (W) 11:42:34 145.980
SPROUT 23 Nov 11:36:43 11:40:11 24° 95° (E) 11:43:36 437.525
AO-91 23 Nov 11:41:53 11:46:27 29° 67° (ENE) 11:51:01 145.960
AO-85 23 Nov 11:45:10 11:49:44 51° 53° (NE) 11:54:37 145.980
EO-79 23 Nov 11:45:20 11:49:03 29° 264° (W) 11:52:47 145.935-145.965
NANOSAT C BR1 23 Nov 11:46:47 11:50:35 32° 263° (W) 11:54:22 145.865
Gurwin Techsat 1B 23 Nov 11:50:06 11:54:28 27° 65° (ENE) 11:58:50 435.225
POLYITAN 1 23 Nov 12:02:04 12:05:13 20° 266° (W) 12:08:23 437.675
AO-7 23 Nov 12:11:52 12:16:36 17° 46° (NE) 12:21:20 .
FALCONSAT 3 23 Nov 12:16:23 12:19:06 19° 196° (SSW) 12:21:48 435.103
BUGSAT 1 23 Nov 12:16:52 12:21:01 70° 257° (WSW) 12:25:11 437.445
LO-87 23 Nov 12:19:02 12:20:58 14° 294° (WNW) 12:22:54 145.935 - 145.965
O/OREOS (USA 219) 23 Nov 12:24:09 12:28:34 48° 107° (ESE) 12:33:01 437.305
ESTCUBE 1 23 Nov 12:25:15 12:29:02 26° 293° (WNW) 12:32:48 437.505/2401.250
VELOX 1 23 Nov 12:33:57 12:38:24 64° 101° (ESE) 12:42:47 145.980
Oscar 19 23 Nov 12:43:23 12:48:30 77° 258° (WSW) 12:53:38 437.125/150
BEESAT 2 23 Nov 12:44:24 12:46:57 16° 250° (WSW) 12:49:28 435.950
NO-84 23 Nov 13:01:29 13:03:38 15° 123° (ESE) 13:05:54 435.350 FM
ITAMSAT 1 23 Nov 13:06:00 13:07:53 12° 57° (ENE) 13:09:47 435.822/435.867
M-CUBED/EXP-1 PRIME 23 Nov 13:11:22 13:14:50 45° 66° (ENE) 13:18:36 437.505
DX 1 23 Nov 13:11:36 13:15:39 35° 98° (E) 13:19:39 434.975-435.025
SPROUT 23 Nov 13:12:21 13:16:02 29° 291° (WNW) 13:19:43 437.525
AO-91 23 Nov 13:17:38 13:22:40 40° 263° (W) 13:27:44 145.960
50 SAT 23 Nov 13:20:42 13:23:52 50° 100° (E) 13:26:59 437.505
AO-85 23 Nov 13:26:15 13:29:54 22° 248° (WSW) 13:33:42 145.980
Gurwin Techsat 1B 23 Nov 13:29:10 13:34:11 42° 262° (W) 13:39:13 435.225
UKube-1 23 Nov 13:48:04 13:52:20 55° 101° (E) 13:56:34 .
YUBILEINY 23 Nov 13:55:37 13:58:18 11° 53° (NE) 14:00:59 435.215
AO-7 23 Nov 13:59:41 14:07:51 68° 67° (ENE) 14:16:05 .
O/OREOS (USA 219) 23 Nov 14:04:55 14:08:15 19° 306° (NW) 14:11:36 437.305
MOZHAYETS 4 23 Nov 14:05:58 14:08:58 17° 92° (E) 14:11:55
BEESAT 23 Nov 14:07:19 14:09:28 13° 90° (E) 14:11:37 436.000
VELOX 1 23 Nov 14:12:03 14:14:18 14° 298° (WNW) 14:16:32 145.980
ITUPSAT 1 23 Nov 14:18:04 14:21:05 17° 92° (E) 14:24:05 437.325
NO-84 23 Nov 14:36:51 14:40:28 63° 322° (NW) 14:44:24 435.350 FM
ITAMSAT 1 23 Nov 14:41:16 14:46:30 83° 74° (ENE) 14:51:46 435.822/435.867
M-CUBED/EXP-1 PRIME 23 Nov 14:47:55 14:49:35 13° 265° (W) 14:51:18 437.505
DX 1 23 Nov 14:48:14 14:51:36 22° 294° (WNW) 14:54:58 434.975-435.025
UKube-1 23 Nov 15:25:27 15:27:52 15° 298° (WNW) 15:30:18 .
MOZHAYETS 4 23 Nov 15:41:57 15:46:21 48° 288° (WNW) 15:50:45
BEESAT 23 Nov 15:42:58 15:47:42 68° 286° (WNW) 15:52:24 436.000
YUBILEINY 23 Nov 15:48:40 15:57:24 58° 77° (ENE) 16:06:01 435.215
RS-15 23 Nov 15:51:33 15:57:45 16° 95° (E) 16:03:56 29.354- 29.394
DOVE 4 23 Nov 15:52:52 15:57:54 68° 74° (ENE) 16:03:10 437.250
AO-7 23 Nov 15:54:29 16:01:12 27° 266° (W) 16:07:58 .
ITUPSAT 1 23 Nov 15:54:34 15:59:13 53° 288° (WNW) 16:03:49 437.325
CUBESAT XI-V 23 Nov 16:00:17 16:04:57 62° 101° (E) 16:09:37 437.345
XW-2C 23 Nov 16:05:34 16:07:41 15° 66° (ENE) 16:09:49 145.795 - 145.815
LilacSat-2 23 Nov 16:10:26 16:13:01 18° 67° (ENE) 16:15:38 437.200
XW-2F 23 Nov 16:13:23 16:15:47 17° 67° (ENE) 16:18:12 145.980 - 146.000
NO-84 23 Nov 16:15:45 16:18:30 18° 343° (NNW) 16:21:22 435.350 FM
ITAMSAT 1 23 Nov 16:24:38 16:26:35 12° 271° (W) 16:28:33 435.822/435.867
CUTE-I 23 Nov 16:32:56 16:37:43 34° 67° (ENE) 16:42:32 437.470
KAITUO 1B 23 Nov 16:35:53 16:38:50 23° 69° (ENE) 16:41:48 145.475/437.950
XW-2D 23 Nov 16:57:03 17:00:44 62° 75° (ENE) 17:04:27 145.860 - 145.880
HO-68 23 Nov 16:57:31 17:03:48 34° 62° (ENE) 17:10:06 435.675
CUBEBUG 2 23 Nov 16:59:20 17:00:17 11° 61° (ENE) 17:01:14 437.445
CUTE 1.7 + AOD 2 23 Nov 17:08:23 17:11:29 20° 66° (ENE) 17:14:34 437.475
XW-2B 23 Nov 17:11:56 17:15:40 88° 257° (WSW) 17:19:26 145.730 - 145.750
KKS-1 23 Nov 17:14:00 17:18:30 81° 104° (ESE) 17:22:56 437.445
NUDT-PHONESAT 23 Nov 17:14:53 17:18:30 68° 76° (ENE) 17:22:09 437.300
STARS 23 Nov 17:30:29 17:34:44 47° 99° (E) 17:38:57 437.465
DOVE 4 23 Nov 17:33:09 17:36:04 15° 272° (W) 17:39:04 437.250
SEEDS 23 Nov 17:33:13 17:36:29 23° 67° (ENE) 17:39:46 437.485
AAUSAT CUBESAT 2 23 Nov 17:34:41 17:35:05 10° 61° (ENE) 17:35:29 437.432
XW-2C 23 Nov 17:38:01 17:41:31 39° 262° (W) 17:45:03 145.795 - 145.815
CUBESAT XI-V 23 Nov 17:39:06 17:41:47 15° 298° (WNW) 17:44:30 437.345
LilacSat-2 23 Nov 17:43:41 17:47:03 31° 263° (W) 17:50:27 437.200
YUBILEINY 23 Nov 17:46:12 17:53:39 32° 277° (W) 18:01:05 435.215
XW-2F 23 Nov 17:46:14 17:49:37 33° 263° (W) 17:53:02 145.980 - 146.000
UWE-3 23 Nov 17:47:57 17:51:03 19° 66° (ENE) 17:54:06 435.000/436.395/437.385
NO-84 23 Nov 17:55:01 17:57:11 14° 4° (N) 17:59:22 435.350 FM
XW-2A 23 Nov 17:55:34 17:57:33 15° 67° (ENE) 17:59:32 145.665 - 145.685
RS-15 23 Nov 17:55:43 18:07:50 69° 116° (ESE) 18:19:56 29.354- 29.394
STRAND 1 23 Nov 18:03:06 18:05:07 12° 89° (E) 18:07:08 437.568
KAITUO 1B 23 Nov 18:09:46 18:12:43 23° 265° (W) 18:15:41 145.475/437.950
CUTE-I 23 Nov 18:12:58 18:17:43 32° 264° (W) 18:22:31 437.470
AO-73 23 Nov 18:21:15 18:24:18 20° 67° (ENE) 18:27:20 145.935
CUBEBUG 2 23 Nov 18:31:41 18:36:16 84° 259° (W) 18:40:43 437.445
ISS 23 Nov 18:34:30 18:35:53 12° 130° (SE) 18:37:15 437.550
Oscar 11 23 Nov 18:34:31 18:37:31 19° 66° (ENE) 18:40:32 .
CUTE 1.7 + AOD 2 23 Nov 18:43:12 18:47:03 35° 263° (W) 18:50:58 437.475
HO-68 23 Nov 18:44:20 18:51:15 50° 260° (W) 18:58:15 435.675
KKS-1 23 Nov 18:53:04 18:54:23 11° 300° (WNW) 18:55:41 437.445
AAUSAT CUBESAT 2 23 Nov 19:05:45 19:09:52 77° 258° (WSW) 19:14:03 437.432
ZACube-1 23 Nov 19:06:41 19:10:57 69° 76° (ENE) 19:15:10 437.345
STARS 23 Nov 19:07:50 19:10:41 17° 296° (WNW) 19:13:32 437.465
SEEDS 23 Nov 19:08:18 19:11:59 31° 264° (W) 19:15:44 437.485
nSIGHT-1 23 Nov 19:15:37 19:18:37 38° 139° (SE) 19:21:39 .
FO-29 23 Nov 19:22:52 19:29:18 27° 90° (E) 19:35:19 435.910
UWE-3 23 Nov 19:23:03 19:27:14 41° 262° (W) 19:31:19 435.000/436.395/437.385
XW-2A 23 Nov 19:27:06 19:30:01 28° 263° (W) 19:32:56 145.665 - 145.685
NO-84 23 Nov 19:32:11 19:35:42 25° 25° (NNE) 19:39:17 435.350 FM
STRAND 1 23 Nov 19:39:45 19:44:53 79° 285° (WNW) 19:49:58 437.568
Max Valier Satellite 23 Nov 19:42:34 19:44:04 12° 65° (ENE) 19:45:35 145.860
AO-73 23 Nov 19:56:19 20:00:18 37° 263° (W) 20:04:12 145.935
ISS 23 Nov 20:08:39 20:11:55 81° 325° (NW) 20:15:12 437.550
Oscar 11 23 Nov 20:09:19 20:13:21 40° 262° (W) 20:17:26 .
RS-15 23 Nov 20:09:32 20:21:09 45° 321° (NW) 20:32:40 29.354- 29.394
SO-50 23 Nov 20:43:43 20:48:06 58° 120° (ESE) 20:52:31 436.795
DELFI C3 23 Nov 20:44:25 20:48:22 79° 256° (WSW) 20:52:23 145.870
ZACube-1 23 Nov 20:47:06 20:47:39 10° 271° (W) 20:48:12 437.345
nSIGHT-1 23 Nov 20:51:58 20:54:54 31° 336° (NNW) 20:57:49 .
O/OREOS (USA 219) 23 Nov 20:56:04 20:58:07 13° 50° (NE) 21:00:09 437.305
EO-88 23 Nov 21:05:14 21:08:51 90° 264° (W) 21:12:29 145.990 - 145.960
UNISAT 6 23 Nov 21:06:21 21:10:05 29° 96° (E) 21:13:47 437.425
FO-29 23 Nov 21:07:02 21:14:47 65° 290° (WNW) 21:22:00 435.910
NO-84 23 Nov 21:09:11 21:13:26 76° 223° (SW) 21:17:41 435.350 FM
TIGRISAT 23 Nov 21:09:53 21:13:36 28° 96° (E) 21:17:17 435.000
PRISM 23 Nov 21:13:57 21:14:58 11° 90° (E) 21:16:00 437.425
Max Valier Satellite 23 Nov 21:13:57 21:17:29 46° 261° (W) 21:21:00 145.860
LO-87 23 Nov 21:21:32 21:23:54 17° 67° (ENE) 21:26:15 145.935 - 145.965
STRAND 1 23 Nov 21:22:00 21:23:11 11° 303° (WNW) 21:24:22 437.568
ISS 23 Nov 21:46:14 21:48:47 20° 345° (NNW) 21:51:20 437.550
ESTCUBE 1 23 Nov 21:48:14 21:52:07 30° 68° (ENE) 21:56:03 437.505/2401.250
SO-50 23 Nov 22:25:35 22:28:54 20° 318° (NW) 22:32:17 436.795
RS-15 23 Nov 22:28:33 22:37:59 24° 353° (N) 22:47:12 29.354- 29.394
nSIGHT-1 23 Nov 22:29:50 22:31:51 15° 356° (N) 22:33:53 .
SPROUT 23 Nov 22:30:34 22:33:44 21° 66° (ENE) 22:36:55 437.525
O/OREOS (USA 219) 23 Nov 22:33:35 22:38:09 81° 249° (WSW) 22:42:38 437.305
QB50P2 23 Nov 22:35:20 22:36:24 11° 89° (E) 22:37:28 145.880/145.840
UNISAT 6 23 Nov 22:43:13 22:46:41 25° 292° (WNW) 22:50:08 437.425
PRISM 23 Nov 22:46:30 22:50:38 64° 287° (WNW) 22:54:43 437.425
TIGRISAT 23 Nov 22:46:42 22:50:11 25° 292° (WNW) 22:53:37 435.000
NO-84 23 Nov 22:49:09 22:50:08 11° 239° (WSW) 22:51:07 435.350 FM
LO-87 23 Nov 22:53:49 22:57:03 31° 263° (W) 23:00:17 145.935 - 145.965
FO-29 23 Nov 22:54:20 22:58:15 15° 309° (NW) 23:02:06 435.910
AIST 2D 23 Nov 23:14:38 23:18:11 83° 280° (W) 23:21:42 435.315
DUCHIFAT 1 23 Nov 23:18:03 23:21:23 23° 95° (E) 23:24:42 145.980
PCSat 23 Nov 23:23:21 23:28:43 72° 117° (ESE) 23:34:09 145.827
ISS 23 Nov 23:24:01 23:26:09 16° 5° (N) 23:28:17 437.550
ESTCUBE 1 23 Nov 23:25:08 23:28:53 26° 265° (W) 23:32:40 437.505/2401.250
EO-79 23 Nov 23:28:47 23:32:44 39° 98° (E) 23:36:39 145.935-145.965
NANOSAT C BR1 23 Nov 23:30:00 23:33:52 36° 98° (E) 23:37:42 145.865
VELOX 1 23 Nov 23:31:10 23:35:31 59° 73° (ENE) 23:39:55 145.980
POLYITAN 1 23 Nov 23:44:49 23:48:59 61° 101° (E) 23:53:06 437.675
50 SAT 23 Nov 23:48:40 23:50:49 17° 68° (ENE) 23:52:59 437.505
BUGSAT 1 23 Nov 23:59:14 00:01:36 15° 92° (E) 00:03:57 437.445
SPROUT 24 Nov 00:05:25 00:09:22 36° 262° (W) 00:13:21 437.525
nSIGHT-1 24 Nov 00:06:25 00:08:57 21° 16° (NNE) 00:11:28 .
DX 1 24 Nov 00:07:22 00:11:17 33° 69° (ENE) 00:15:14 434.975-435.025
QB50P2 24 Nov 00:08:25 00:12:36 64° 285° (WNW) 00:16:44 145.880/145.840
UKube-1 24 Nov 00:42:33 00:46:43 49° 72° (ENE) 00:50:54 .
RS-15 24 Nov 00:45:02 00:55:36 33° 29° (NNE) 01:05:41 29.354- 29.394
DUCHIFAT 1 24 Nov 00:53:24 00:57:02 30° 291° (WNW) 01:00:39 145.980
Oscar 19 24 Nov 00:54:32 00:59:17 36° 97° (E) 01:04:01 437.125/150
ISS 24 Nov 01:00:18 01:03:20 34° 25° (NNE) 01:06:21 437.550
EO-79 24 Nov 01:05:18 01:08:11 18° 295° (WNW) 01:11:04 145.935-145.965
NANOSAT C BR1 24 Nov 01:06:17 01:09:19 20° 294° (WNW) 01:12:21 145.865
AO-91 24 Nov 01:07:57 01:12:14 44° 97° (E) 01:16:03 145.960
MOZHAYETS 4 24 Nov 01:08:29 01:11:34 18° 64° (ENE) 01:14:40
PCSat 24 Nov 01:08:39 01:12:41 21° 317° (NW) 01:16:43 145.827
VELOX 1 24 Nov 01:10:12 01:12:20 13° 270° (W) 01:14:28 145.980
BEESAT 24 Nov 01:13:49 01:16:56 18° 63° (ENE) 01:20:04 436.000
BEESAT 3 24 Nov 01:15:12 01:18:51 35° 116° (ESE) 01:22:31 437.485
50 SAT 24 Nov 01:20:02 01:22:43 24° 264° (W) 01:25:25 437.505
POLYITAN 1 24 Nov 01:22:22 01:24:15 13° 298° (WNW) 01:26:06 437.675
ITUPSAT 1 24 Nov 01:25:04 01:28:41 22° 65° (ENE) 01:32:19 437.325
BUGSAT 1 24 Nov 01:33:21 01:37:09 41° 288° (WNW) 01:40:55 437.445
nSIGHT-1 24 Nov 01:42:18 01:45:32 89° 35° (NE) 01:48:42 .
DX 1 24 Nov 01:44:03 01:47:30 23° 265° (W) 01:50:59 434.975-435.025
Gurwin Techsat 1B 24 Nov 01:44:23 01:49:44 75° 104° (ESE) 01:55:02 435.225
AO-7 24 Nov 02:02:05 02:07:52 20° 91° (E) 02:13:36 .
AO-85 24 Nov 02:03:42 02:04:36 11° 107° (ESE) 02:05:30 145.980
UKube-1 24 Nov 02:20:30 02:23:00 15° 268° (W) 02:25:31 .
M-CUBED/EXP-1 PRIME 24 Nov 02:22:30 02:26:44 36° 102° (ESE) 02:31:00 437.505
BEESAT 2 24 Nov 02:33:54 02:37:53 72° 121° (ESE) 02:41:56 435.950
Oscar 19 24 Nov 02:34:03 02:38:28 29° 294° (WNW) 02:42:52 437.125/150
ISS 24 Nov 02:36:49 02:39:48 33° 222° (SW) 02:42:46 437.550
MOZHAYETS 4 24 Nov 02:43:57 02:48:22 47° 261° (W) 02:52:47
AO-91 24 Nov 02:45:18 02:48:14 17° 298° (WNW) 02:50:58 145.960
BEESAT 24 Nov 02:49:35 02:54:16 55° 259° (W) 02:58:58 436.000
BEESAT 3 24 Nov 02:53:11 02:56:27 24° 314° (NW) 02:59:45 437.485
ITAMSAT 1 24 Nov 02:54:07 02:58:33 28° 95° (E) 03:02:56 435.822/435.867
RS-15 24 Nov 02:58:04 03:10:03 85° 57° (ENE) 03:21:18 29.354- 29.394
YUBILEINY 24 Nov 03:01:05 03:03:24 11° 72° (ENE) 03:05:43 435.215
ITUPSAT 1 24 Nov 03:01:42 03:06:14 43° 261° (W) 03:10:47 437.325
CUBESAT XI-V 24 Nov 03:03:43 03:08:14 63° 74° (ENE) 03:12:49 437.345
nSIGHT-1 24 Nov 03:20:47 03:21:15 10° 231° (SW) 03:21:44 .
Gurwin Techsat 1B 24 Nov 03:25:55 03:29:02 16° 300° (WNW) 03:32:09 435.225
SO-50 24 Nov 03:35:43 03:37:25 12° 34° (NNE) 03:39:07 436.795
AO-85 24 Nov 03:40:28 03:44:20 64° 306° (NW) 03:48:23 145.980
DOVE 4 24 Nov 03:52:31 03:56:07 19° 90° (E) 03:59:35 437.250
AO-7 24 Nov 03:53:08 04:01:32 86° 290° (WNW) 04:09:55 .
M-CUBED/EXP-1 PRIME 24 Nov 03:57:06 04:00:55 27° 298° (WNW) 04:04:47 437.505
KKS-1 24 Nov 04:12:01 04:16:30 79° 75° (ENE) 04:21:00 437.445
BEESAT 2 24 Nov 04:13:43 04:16:05 15° 320° (NW) 04:18:28 435.950
STARS 24 Nov 04:27:07 04:31:20 45° 71° (ENE) 04:35:34 437.465
ITAMSAT 1 24 Nov 04:33:18 04:38:04 37° 292° (WNW) 04:42:48 435.822/435.867
CUBESAT XI-V 24 Nov 04:43:53 04:46:02 13° 270° (W) 04:48:11 437.345
YUBILEINY 24 Nov 04:49:42 04:58:18 65° 92° (E) 05:07:00 435.215
CUTE-I 24 Nov 04:51:14 04:53:20 12° 88° (E) 04:55:25 437.470
XW-2C 24 Nov 05:10:14 05:13:01 19° 94° (E) 05:15:48 145.795 - 145.815
RS-15 24 Nov 05:12:07 05:20:54 26° 259° (W) 05:29:26 29.354- 29.394
SO-50 24 Nov 05:14:12 05:18:49 60° 53° (NE) 05:23:27 436.795
LilacSat-2 24 Nov 05:16:06 05:19:17 24° 95° (E) 05:22:27 437.200
XW-2F 24 Nov 05:17:37 05:20:36 21° 95° (E) 05:23:35 145.980 - 146.000
STRAND 1 24 Nov 05:18:39 05:22:22 21° 63° (ENE) 05:26:06 437.568
DOVE 4 24 Nov 05:29:08 05:34:07 50° 288° (WNW) 05:38:49 437.250
FO-29 24 Nov 05:37:54 05:41:21 14° 50° (NE) 05:44:56 435.910
KAITUO 1B 24 Nov 05:39:22 05:42:44 30° 97° (E) 05:46:06 145.475/437.950
AO-7 24 Nov 05:47:20 05:53:11 22° 310° (NW) 05:59:02 .
XW-2D 24 Nov 06:02:41 06:06:31 88° 100° (E) 06:10:21 145.860 - 145.880
STARS 24 Nov 06:04:57 06:07:53 17° 267° (W) 06:10:49 437.465
HO-68 24 Nov 06:11:31 06:17:51 32° 96° (E) 06:24:07 435.675
XW-2B 24 Nov 06:17:42 06:21:28 63° 285° (WNW) 06:25:15 145.730 - 145.750
NUDT-PHONESAT 24 Nov 06:17:48 06:21:32 89° 97° (E) 06:25:15 437.300
CUBEBUG 2 24 Nov 06:22:54 06:25:45 18° 92° (E) 06:28:35 437.445
CUTE 1.7 + AOD 2 24 Nov 06:27:04 06:31:01 35° 97° (E) 06:34:58 437.475
CUTE-I 24 Nov 06:28:38 06:34:02 84° 285° (WNW) 06:39:22 437.470
PCSat 24 Nov 06:29:05 06:31:36 13° 36° (NE) 06:34:07 145.827
XW-2C 24 Nov 06:43:52 06:47:13 30° 289° (WNW) 06:50:34 145.795 - 145.815
AAUSAT CUBESAT 2 24 Nov 06:48:16 06:50:53 16° 92° (E) 06:53:29 437.432
YUBILEINY 24 Nov 06:48:26 06:55:45 29° 293° (WNW) 07:03:10 435.215
XW-2A 24 Nov 06:48:30 06:50:25 14° 93° (E) 06:52:20 145.665 - 145.685
LilacSat-2 24 Nov 06:50:20 06:53:27 24° 291° (WNW) 06:56:35 437.200
SEEDS 24 Nov 06:50:50 06:54:51 39° 98° (E) 06:58:50 437.485
XW-2F 24 Nov 06:51:28 06:54:40 26° 290° (WNW) 06:57:53 145.980 - 146.000
SO-50 24 Nov 06:55:52 06:58:49 17° 250° (WSW) 07:01:46 436.795
STRAND 1 24 Nov 06:56:08 07:01:08 53° 259° (W) 07:06:12 437.568
ZACube-1 24 Nov 06:56:10 06:57:48 12° 90° (E) 06:59:25 437.345
UWE-3 24 Nov 07:11:48 07:15:37 34° 97° (E) 07:19:25 435.000/436.395/437.385
KAITUO 1B 24 Nov 07:13:48 07:16:30 19° 292° (WNW) 07:19:13 145.475/437.950
FO-29 24 Nov 07:18:05 07:24:48 65° 71° (ENE) 07:32:17 435.910
AO-73 24 Nov 07:43:12 07:47:02 35° 97° (E) 07:50:54 145.935
Oscar 11 24 Nov 07:55:44 07:59:41 33° 97° (E) 08:03:37 .
CUBEBUG 2 24 Nov 07:58:41 08:02:31 37° 289° (WNW) 08:06:19 437.445
HO-68 24 Nov 07:58:53 08:05:46 50° 294° (WNW) 08:12:36 435.675
CUTE 1.7 + AOD 2 24 Nov 08:03:25 08:06:37 21° 293° (WNW) 08:09:49 437.475
UNISAT 6 24 Nov 08:05:22 08:09:15 29° 69° (ENE) 08:13:04 437.425
TIGRISAT 24 Nov 08:08:46 08:12:38 28° 69° (ENE) 08:16:26 435.000
PCSat 24 Nov 08:10:43 08:16:07 63° 57° (ENE) 08:21:29 145.827
CUTE-I 24 Nov 08:11:05 08:13:13 12° 303° (WNW) 08:15:20 437.470
XW-2A 24 Nov 08:20:12 08:23:11 30° 288° (WNW) 08:26:10 145.665 - 145.685
DELFI C3 24 Nov 08:22:20 08:24:05 13° 90° (E) 08:25:50 145.870
AAUSAT CUBESAT 2 24 Nov 08:22:32 08:26:31 43° 288° (WNW) 08:30:28 437.432
FALCONSAT 3 24 Nov 08:25:16 08:27:58 20° 165° (SSE) 08:30:42 435.103
